TimeMST,TemperatureF,Dew PointF,Humidity,Sea Level PressureIn,VisibilityMPH,Wind Direction,Wind SpeedMPH,Gust SpeedMPH,PrecipitationIn,Events,Conditions,WindDirDegrees,DateUTC
12:51 AM,23.0,16.0,74,30.11,10.0,Calm,Calm,-,N/A,,Clear,0,2013-02-03 07:51:00
1:51 AM,28.9,19.9,69,30.06,10.0,West,12.7,-,N/A,,Clear,260,2013-02-03 08:51:00
2:51 AM,30.0,21.0,69,30.04,10.0,West,16.1,-,N/A,,Clear,260,2013-02-03 09:51:00
3:51 AM,28.9,19.9,69,30.02,10.0,West,12.7,-,N/A,,Clear,260,2013-02-03 10:51:00
4:51 AM,30.9,21.0,67,29.99,10.0,West,15.0,-,N/A,,Clear,260,2013-02-03 11:51:00
5:51 AM,30.0,19.9,66,29.96,10.0,West,13.8,-,N/A,,Clear,260,2013-02-03 12:51:00
6:51 AM,30.0,19.0,64,29.94,10.0,West,15.0,-,N/A,,Clear,270,2013-02-03 13:51:00
7:51 AM,30.0,19.0,64,29.92,10.0,West,11.5,-,N/A,,Clear,270,2013-02-03 14:51:00
8:51 AM,33.1,19.9,59,29.90,10.0,WSW,13.8,-,N/A,,Clear,250,2013-02-03 15:51:00
9:51 AM,36.0,21.9,57,29.88,10.0,West,13.8,-,N/A,,Clear,260,2013-02-03 16:51:00
10:51 AM,37.9,23.0,55,29.88,10.0,West,18.4,-,N/A,,Clear,270,2013-02-03 17:51:00
11:51 AM,39.0,23.0,53,29.86,10.0,West,16.1,-,N/A,,Clear,270,2013-02-03 18:51:00
12:51 PM,39.0,25.0,57,29.86,10.0,West,12.7,-,N/A,,Scattered Clouds,270,2013-02-03 19:51:00
1:51 PM,39.9,24.1,53,29.84,10.0,WNW,16.1,-,N/A,,Scattered Clouds,290,2013-02-03 20:51:00
2:51 PM,37.9,25.0,60,29.86,10.0,WNW,16.1,-,N/A,,Scattered Clouds,290,2013-02-03 21:51:00
3:51 PM,37.9,26.1,62,29.87,10.0,NW,11.5,-,N/A,,Partly Cloudy,310,2013-02-03 22:51:00
4:51 PM,36.0,25.0,64,29.88,10.0,NW,12.7,-,N/A,,Mostly Cloudy,310,2013-02-03 23:51:00
5:51 PM,34.0,26.1,73,29.92,10.0,WNW,10.4,-,N/A,,Mostly Cloudy,290,2013-02-04 00:51:00
6:51 PM,32.0,25.0,75,29.94,10.0,WNW,11.5,-,N/A,,Scattered Clouds,290,2013-02-04 01:51:00
7:51 PM,30.0,23.0,75,29.96,10.0,NW,12.7,-,N/A,,Scattered Clouds,310,2013-02-04 02:51:00
8:51 PM,28.0,21.0,75,29.96,10.0,NW,11.5,-,N/A,,Partly Cloudy,310,2013-02-04 03:51:00
9:51 PM,24.1,18.0,77,29.97,10.0,West,5.8,-,N/A,,Scattered Clouds,280,2013-02-04 04:51:00
10:51 PM,21.9,17.1,82,29.97,10.0,West,9.2,-,N/A,,Clear,270,2013-02-04 05:51:00
11:51 PM,21.0,16.0,81,29.97,10.0,WNW,5.8,-,N/A,,Mostly Cloudy,290,2013-02-04 06:51:00